TimeCDT,TemperatureF,Dew PointF,Humidity,Sea Level PressureIn,VisibilityMPH,Wind Direction,Wind SpeedMPH,Gust SpeedMPH,PrecipitationIn,Events,Conditions,WindDirDegrees,DateUTC
12:52 AM,41.0,39.0,93,29.90,8.0,NNE,19.6,28.8,0.05,Rain,Light Rain,20,2013-05-10 05:52:00
1:52 AM,41.0,39.0,93,29.88,4.0,NNE,18.4,32.2,0.04,Rain,Rain,20,2013-05-10 06:52:00
2:52 AM,41.0,39.0,93,29.86,4.0,North,20.7,31.1,0.10,Rain,Rain,10,2013-05-10 07:52:00
3:52 AM,42.1,39.9,92,29.84,4.0,North,19.6,29.9,0.10,Rain,Light Rain,10,2013-05-10 08:52:00
4:52 AM,42.1,41.0,96,29.85,4.0,North,17.3,28.8,0.15,Rain,Light Rain,360,2013-05-10 09:52:00
4:55 AM,42.8,41.0,93,29.84,1.8,North,17.3,28.8,0.01,Rain,Light Rain,10,2013-05-10 09:55:00
5:11 AM,42.8,41.0,93,29.85,2.5,North,18.4,26.5,0.04,Rain,Rain,360,2013-05-10 10:11:00
5:36 AM,42.8,41.0,93,29.85,3.0,NNE,21.9,31.1,0.17,Rain,Heavy Rain,20,2013-05-10 10:36:00
5:52 AM,42.1,39.9,92,29.86,3.0,North,24.2,36.8,0.28,Rain,Heavy Rain,10,2013-05-10 10:52:00
6:52 AM,42.1,39.9,92,29.87,4.0,North,19.6,35.7,0.15,Rain,Light Rain,10,2013-05-10 11:52:00
7:52 AM,42.1,39.9,92,29.89,10.0,NNE,19.6,38.0,0.02,,Overcast,20,2013-05-10 12:52:00
8:52 AM,42.1,39.9,92,29.91,10.0,North,24.2,32.2,0.00,Rain,Light Rain,10,2013-05-10 13:52:00
9:52 AM,42.1,39.0,89,29.94,10.0,North,18.4,32.2,0.00,,Overcast,360,2013-05-10 14:52:00
10:52 AM,42.1,39.0,89,29.96,10.0,North,23.0,31.1,0.00,,Overcast,10,2013-05-10 15:52:00
11:52 AM,42.1,37.9,85,29.98,10.0,NNE,21.9,34.5,N/A,,Overcast,20,2013-05-10 16:52:00
12:52 PM,42.1,37.9,85,29.98,10.0,North,21.9,32.2,N/A,,Overcast,10,2013-05-10 17:52:00
1:52 PM,42.1,37.9,85,29.99,10.0,North,21.9,27.6,N/A,,Overcast,10,2013-05-10 18:52:00
2:52 PM,42.1,37.9,85,30.00,10.0,NNE,17.3,27.6,N/A,,Overcast,20,2013-05-10 19:52:00
3:52 PM,42.1,37.9,85,29.99,10.0,NNE,19.6,26.5,N/A,,Overcast,20,2013-05-10 20:52:00
4:52 PM,41.0,37.9,89,29.99,10.0,NNE,17.3,24.2,N/A,,Overcast,20,2013-05-10 21:52:00
5:52 PM,41.0,37.0,86,29.99,10.0,NNE,13.8,21.9,N/A,,Overcast,20,2013-05-10 22:52:00
6:48 PM,42.8,37.4,81,29.97,10.0,NNE,13.8,-,N/A,,Overcast,20,2013-05-10 23:48:00
6:52 PM,42.1,37.9,85,29.99,10.0,NNE,12.7,-,N/A,,Overcast,20,2013-05-10 23:52:00
7:52 PM,42.1,37.0,82,30.00,10.0,NNE,10.4,-,N/A,,Overcast,20,2013-05-11 00:52:00
8:52 PM,42.1,37.9,85,30.00,10.0,North,4.6,-,N/A,,Overcast,350,2013-05-11 01:52:00
9:52 PM,42.1,36.0,79,30.00,10.0,North,3.5,-,N/A,,Mostly Cloudy,350,2013-05-11 02:52:00
10:52 PM,42.1,37.9,85,29.99,10.0,NW,3.5,-,N/A,,Overcast,310,2013-05-11 03:52:00
11:33 PM,42.8,37.4,81,29.97,10.0,Calm,Calm,-,N/A,,Overcast,0,2013-05-11 04:33:00
11:52 PM,43.0,37.9,82,29.98,10.0,WNW,4.6,-,N/A,,Overcast,300,2013-05-11 04:52:00